GFSFLT2_sfc_30mbdewp_000.txt.gz
Dewpoint
24 23 21 22 23 24 27 28 27 30 34 39 35 39 41 45 45 45 49 52 52 53 53 54 55 57 54
22 22 22 23 25 24 22 24 25 26 27 31 37 39 40 42 46 44 45 47 50 53 52 53 54 54 57
24 25 25 24 24 25 25 23 25 28 28 27 32 35 39 42 41 42 44 48 50 51 52 53 53 53 54
26 25 25 24 23 23 23 26 27 28 29 31 33 37 37 39 40 41 46 47 48 49 49 50 51 52 53
25 23 21 21 22 23 23 25 28 29 32 33 33 35 35 34 36 38 41 43 45 46 46 47 48 49 52
25 21 21 21 21 22 25 25 25 32 27 29 30 31 32 34 35 40 40 41 43 45 43 44 44 45 49
21 20 21 23 24 26 27 26 26 28 28 29 30 32 32 34 33 35 39 42 43 44 44 44 43 44 47
18 23 27 25 23 24 28 29 29 29 30 29 29 29 31 34 36 37 39 41 41 41 42 43 43 44 46
21 20 19 20 23 26 27 27 24 26 27 28 29 30 32 28 31 35 37 37 38 40 41 42 44 45 46
18 18 19 21 21 24 27 24 24 23 25 28 25 28 24 30 32 31 33 32 37 44 45 45 47 45 46
18 19 20 21 23 24 24 24 24 23 24 29 26 27 25 25 26 29 31 33 37 41 42 43 43 42 42
19 19 20 21 23 23 24 25 26 26 27 30 26 26 24 23 22 26 31 32 35 37 38 40 41 41 41
19 20 20 21 23 24 25 26 26 29 29 30 27 25 25 23 22 27 29 30 32 34 33 34 35 37 37
20 21 21 21 22 22 24 24 26 26 30 28 27 26 24 24 26 28 30 28 29 31 32 32 33 33 34
21 20 20 21 22 23 24 26 24 24 23 26 27 27 28 27 27 29 28 26 29 30 30 29 31 32 33
20 20 21 21 22 24 26 26 22 22 21 21 22 23 25 25 27 25 26 26 28 30 30 27 27 31 34
20 21 21 21 22 24 25 23 22 22 21 20 19 19 21 18 23 27 24 26 26 26 27 26 25 28 34

GFSFLT2_sfc_30mbdewp_003.txt.gz
Dewpoint
21 23 23 23 24 25 26 26 25 25 24 25 29 32 34 37 37 38 41 41 44 45 47 51 52 53 53
22 22 22 24 25 24 23 23 24 25 23 25 26 29 31 33 36 37 40 43 43 42 44 47 50 52 53
22 22 24 25 25 23 22 22 23 25 24 23 25 28 30 34 35 38 40 41 39 40 47 48 49 51 52
23 25 24 26 24 21 20 20 21 22 24 26 26 28 32 32 30 32 35 37 38 41 43 45 49 49 48
25 24 24 21 21 19 18 21 23 24 26 27 28 29 28 28 29 32 34 35 37 40 42 44 46 47 47
28 25 22 19 17 20 22 24 21 23 24 25 26 27 28 30 29 32 33 34 36 36 40 43 44 45 44
24 19 17 21 24 25 25 20 20 23 26 25 29 29 30 28 28 29 33 35 34 37 41 43 44 44 45
18 17 22 24 25 20 22 27 26 26 25 25 27 30 27 30 27 30 27 34 37 38 37 38 40 41 42
19 19 19 18 19 21 24 24 22 22 23 23 26 26 27 27 27 30 34 29 32 34 35 37 39 40 41
19 17 17 19 19 22 23 23 22 20 21 22 23 25 24 23 29 27 27 27 32 35 36 41 42 43 42
16 18 19 20 21 22 22 23 22 21 23 23 25 24 25 23 24 26 27 30 32 32 39 44 45 46 44
17 18 19 20 21 22 22 23 24 24 25 27 25 25 24 23 21 24 26 28 31 31 35 38 41 44 46
20 19 20 21 22 22 24 25 25 25 26 29 29 28 26 22 21 22 25 29 31 31 32 32 33 36 37
19 21 21 21 21 23 23 24 24 25 29 29 27 26 23 24 24 22 26 27 30 31 31 31 32 34 36
20 20 20 21 21 23 24 25 24 23 22 24 25 25 26 26 25 27 28 28 30 31 31 31 31 32 34
20 20 20 20 20 23 24 25 23 22 22 22 21 21 24 26 28 26 27 27 30 31 31 30 30 33 36
20 20 20 20 21 21 24 24 23 22 22 22 20 18 21 18 23 28 25 27 28 27 28 29 30 31 35

GFSFLT2_sfc_30mbdewp_009.txt.gz
Dewpoint
18 18 19 21 21 22 23 22 24 25 25 22 22 22 21 21 24 26 26 25 25 26 28 34 40 40 39
19 21 22 22 23 25 23 24 26 25 21 20 19 19 21 21 22 26 29 29 29 29 31 35 35 38 41
25 24 23 27 27 26 26 24 19 18 18 17 18 20 24 23 21 22 24 27 26 27 30 35 31 35 41
22 28 27 26 20 17 15 18 20 19 18 20 23 25 19 21 22 23 25 25 28 28 29 32 34 38 39
27 25 20 16 15 15 19 22 21 20 23 26 19 19 21 22 23 24 25 29 27 32 36 31 30 33 37
26 20 17 16 16 20 24 23 18 20 19 20 20 20 22 22 25 24 21 23 25 30 30 32 28 29 32
20 18 17 18 25 24 19 18 19 20 21 21 21 20 20 23 21 20 23 26 28 28 28 27 27 29 33
19 19 25 24 17 16 19 22 22 20 19 18 19 18 19 20 21 22 23 29 30 33 35 33 34 30 30
24 22 17 16 18 19 21 20 18 17 18 18 19 19 20 21 22 24 25 26 26 26 26 26 27 27 28
14 14 16 17 19 20 22 19 18 17 16 18 20 20 19 21 23 25 25 24 26 30 29 27 28 29 29
15 16 18 19 18 20 22 22 19 18 19 22 22 21 21 20 22 24 25 26 25 26 28 31 32 32 30
17 18 18 19 20 21 22 23 24 23 24 25 23 23 20 20 18 19 21 23 26 26 28 31 33 35 37
19 18 19 21 22 22 22 22 22 23 25 27 26 24 21 18 19 20 23 24 27 28 31 31 31 33 35
19 19 20 21 20 21 21 21 22 21 22 25 26 25 20 19 20 20 24 24 28 30 31 32 33 36 37
19 19 19 19 19 20 21 21 20 21 21 22 24 22 21 21 19 23 25 26 29 30 31 31 32 35 37
19 19 19 19 19 20 20 21 20 21 21 23 22 19 20 22 26 24 26 26 30 31 32 30 30 32 36
19 19 18 18 19 19 20 21 21 22 22 23 22 19 17 16 22 31 26 27 29 31 31 31 30 32 33

GFSFLT2_sfc_30mbdewp_012.txt.gz
Dewpoint
20 20 20 21 22 23 24 25 26 23 22 22 21 22 23 24 22 22 23 25 27 28 28 29 28 29 30
22 24 23 24 23 27 29 23 21 20 19 19 20 19 19 20 22 23 23 31 28 26 26 29 31 33 32
20 21 21 23 29 22 19 16 14 15 18 20 20 20 22 26 26 27 21 22 24 26 26 27 28 28 29
23 25 28 25 19 16 15 16 16 18 25 23 20 21 21 21 20 21 22 23 24 26 27 26 26 29 30
22 23 25 17 16 16 16 17 24 20 17 17 19 19 19 20 20 21 21 22 24 26 27 27 28 28 30
26 21 18 18 18 18 22 19 15 17 17 18 19 19 20 20 21 21 22 22 26 25 24 29 29 28 31
19 19 18 21 25 21 18 18 18 19 20 18 19 18 19 18 19 20 22 22 23 27 29 29 28 30 29
16 20 24 19 16 17 20 22 22 19 18 17 18 17 18 18 20 21 22 23 24 26 30 33 32 31 32
22 18 16 17 18 22 21 19 16 15 17 17 18 18 19 19 20 21 23 24 24 28 30 29 31 32 30
14 14 16 17 19 19 22 18 17 16 15 18 19 19 18 20 21 22 22 23 23 25 26 29 31 32 31
15 16 18 19 19 21 23 22 18 17 18 22 21 20 20 19 19 19 20 23 22 25 27 30 32 32 30
17 18 18 19 20 21 22 23 23 22 23 24 21 22 21 20 17 17 19 21 24 25 26 28 31 32 33
18 18 19 21 22 21 21 21 22 22 25 25 24 23 23 20 18 18 19 21 25 28 29 30 31 31 30
19 19 20 19 20 21 20 19 20 20 21 24 26 25 21 20 20 18 21 21 26 28 30 31 32 33 34
18 18 18 18 19 19 20 21 19 20 21 23 24 25 22 21 19 21 22 25 28 30 31 31 32 33 35
18 17 18 18 18 20 20 20 20 21 22 23 23 21 21 21 26 24 27 27 28 31 31 30 29 32 34
17 18 18 17 18 18 19 20 20 22 22 23 22 21 18 18 22 29 27 29 29 29 31 31 30 31 34

GFSFLT2_sfc_30mbdewp_018.txt.gz
Dewpoint
21 21 23 22 20 21 22 22 24 31 29 26 23 20 20 22 23 25 27 27 29 30 28 29 30 32 33
22 22 20 21 22 24 25 26 29 21 19 19 19 20 20 22 25 26 26 26 26 26 27 28 28 30 30
20 21 22 24 26 25 20 18 16 16 17 19 19 20 21 24 22 24 24 25 27 26 25 27 28 29 30
21 24 27 23 17 14 14 16 16 18 21 21 20 19 19 19 20 20 20 21 22 23 24 26 26 27 27
23 20 18 15 14 15 16 19 20 19 17 18 18 18 18 19 20 20 20 21 22 23 25 28 29 28 28
19 17 15 15 16 19 22 19 17 18 18 21 21 19 19 18 18 20 21 22 23 24 25 27 27 28 30
16 16 16 19 24 22 21 20 19 20 21 20 19 17 17 17 18 20 21 22 23 24 25 28 28 27 28
17 20 25 21 18 19 23 23 22 18 17 17 18 17 17 17 19 20 21 22 22 24 25 26 26 25 26
24 21 18 19 20 23 21 19 16 15 16 16 17 17 18 18 19 21 21 21 21 22 23 24 26 26 27
15 15 17 17 20 19 20 18 17 16 15 18 18 19 17 17 18 19 20 21 22 24 25 26 26 27 29
15 16 18 18 18 19 20 21 18 17 18 21 20 19 18 18 19 20 21 22 23 24 25 28 29 30 29
17 17 17 17 18 19 20 21 21 22 23 23 20 20 19 18 17 20 21 23 25 25 25 26 28 30 32
17 17 17 18 19 19 19 20 20 21 22 22 23 22 22 21 20 21 23 23 24 24 26 26 26 27 27
17 17 17 17 17 18 18 18 19 18 20 22 24 26 23 22 23 22 24 22 26 28 29 31 31 32 31
17 16 16 16 16 17 18 18 17 17 19 21 24 25 24 24 22 24 25 26 30 31 31 30 31 32 32
16 16 16 16 17 17 17 17 17 18 20 22 23 22 21 22 25 25 27 27 30 31 31 29 29 32 33
16 16 17 16 16 16 16 17 17 19 22 22 23 22 20 19 21 24 27 28 29 29 30 29 29 33 37

GFSFLT2_sfc_30mbdewp_021.txt.gz
Dewpoint
20 21 20 20 19 21 23 24 24 24 22 23 22 21 21 22 23 24 24 25 25 27 29 31 32 35 35
21 21 19 20 21 25 24 20 18 17 18 20 21 22 22 23 24 25 26 25 27 26 26 28 28 29 29
20 20 22 25 22 19 15 14 14 16 18 19 21 22 23 23 23 23 24 24 24 24 25 27 28 28 29
22 26 21 19 18 15 15 16 17 19 21 20 20 20 21 21 21 21 22 22 22 23 24 27 28 28 27
23 20 19 16 15 16 17 19 21 19 19 19 18 19 20 21 21 20 21 22 22 23 25 26 26 27 28
21 17 15 15 17 19 23 20 18 18 17 19 20 19 19 19 19 20 21 22 23 24 26 26 26 28 28
17 16 17 18 25 23 21 20 19 20 20 19 19 18 18 17 19 20 21 22 23 24 25 26 26 26 26
18 20 25 24 20 20 21 22 22 19 17 17 17 17 18 18 19 21 22 23 24 25 26 27 27 27 27
23 23 19 19 20 21 21 19 17 16 17 17 17 19 19 20 20 20 21 24 26 26 26 26 26 26 27
16 15 16 17 19 19 21 19 18 16 15 19 19 20 17 16 19 21 22 22 24 25 27 29 29 29 30
15 16 17 18 18 19 20 21 18 17 18 21 20 20 20 20 20 22 23 24 27 28 27 29 31 31 30
16 17 18 19 19 20 20 21 21 21 22 23 21 21 20 19 19 21 23 25 27 29 29 29 29 31 33
18 18 18 19 20 20 20 20 21 21 22 22 23 23 23 22 22 23 24 26 27 28 30 29 29 29 28
17 18 18 18 18 19 18 19 19 19 21 22 25 26 24 24 24 24 25 25 28 30 31 31 32 33 31
17 17 17 17 17 18 19 19 17 18 19 21 24 25 25 25 24 25 24 26 29 30 30 30 31 32 32
17 17 17 17 17 18 18 18 17 18 19 22 24 23 23 23 24 25 27 27 28 30 31 29 28 33 35
17 16 17 18 16 16 17 17 17 18 21 23 23 23 20 20 23 25 27 27 29 28 30 30 29 32 36

GFSFLT2_sfc_30mbdewp_024.txt.gz
Dewpoint
16 17 18 18 18 19 20 21 21 19 19 20 21 23 24 25 25 26 28 29 30 30 30 29 30 31 31
19 19 18 19 21 21 19 16 14 15 18 20 22 23 23 24 25 26 27 27 28 29 29 29 30 30 30
21 20 21 24 22 19 16 14 15 16 18 19 21 22 24 24 24 25 25 25 26 27 26 27 27 28 28
21 23 27 21 19 15 14 16 17 18 20 20 21 21 22 22 22 23 23 23 24 25 25 26 26 27 28
24 26 21 17 13 15 17 18 22 20 19 20 19 20 21 22 21 21 21 22 23 25 27 27 27 28 27
26 19 15 13 16 18 21 24 19 20 18 20 21 20 20 20 20 21 22 23 24 24 25 26 28 28 29
19 15 15 17 23 25 23 20 20 20 21 21 19 18 19 19 20 21 23 24 25 27 27 27 27 27 27
16 17 21 25 26 21 21 22 22 21 19 19 19 19 20 21 21 22 23 24 26 29 30 30 28 28 28
20 24 24 20 20 21 22 21 19 18 19 19 19 21 21 22 23 21 22 23 25 26 29 32 33 32 31
21 16 16 16 19 20 22 21 20 18 17 20 21 20 18 18 22 23 24 24 26 26 28 29 31 33 32
15 15 16 18 19 20 22 23 20 20 20 22 21 20 20 21 21 23 25 26 27 27 28 29 30 32 32
16 17 19 21 22 23 22 23 23 22 23 23 21 21 21 20 20 22 25 27 29 29 30 31 32 30 30
18 20 20 21 22 22 23 23 23 23 24 24 24 24 23 22 22 23 24 26 28 30 31 32 31 32 31
19 20 20 21 21 21 21 21 21 21 23 24 25 26 24 25 24 24 25 26 29 30 30 31 31 33 32
19 19 19 19 19 20 21 21 20 19 21 23 25 26 27 27 25 26 26 27 28 30 30 30 30 32 33
19 19 19 19 19 20 20 20 20 20 20 22 24 25 24 24 25 26 26 27 29 29 31 30 29 31 33
20 19 20 20 19 19 20 20 20 21 22 24 25 25 23 20 22 25 26 28 29 28 29 30 29 31 34

GFSFLT2_sfc_30mbdewp_030.txt.gz
Dewpoint
18 20 21 21 21 22 22 22 24 24 23 23 22 23 25 26 26 27 28 29 30 31 33 33 34 33 33
21 20 21 21 21 22 23 27 24 20 22 20 22 23 24 25 26 27 27 27 28 29 31 30 31 31 33
21 22 21 22 24 25 28 22 19 18 19 21 21 23 26 24 25 25 25 26 27 27 27 28 29 30 31
22 23 24 25 26 23 19 19 18 20 20 22 25 24 23 23 23 24 25 25 26 26 26 27 28 28 30
23 22 23 26 20 21 18 19 20 21 22 23 21 21 21 22 22 23 24 25 26 26 27 28 28 30 31
25 25 21 20 19 19 19 19 20 23 21 20 21 20 21 23 23 23 24 25 26 27 28 28 29 31 32
22 21 19 19 20 21 22 24 24 23 21 20 21 21 22 21 22 23 24 25 26 27 28 28 30 30 30
20 19 20 21 24 28 26 23 22 22 21 20 20 20 20 21 22 23 24 25 26 25 26 27 28 29 30
20 21 23 23 21 20 20 21 19 19 21 21 20 21 21 20 21 22 22 23 24 25 26 27 28 29 30
23 23 20 19 19 20 20 21 21 19 19 20 21 21 17 17 19 20 21 22 23 24 25 26 28 29 30
19 18 18 19 20 21 22 24 22 20 20 21 21 21 20 19 18 19 20 21 22 23 24 26 28 29 30
17 18 19 20 21 22 22 23 23 23 23 25 22 22 20 19 17 19 20 22 23 24 25 26 28 29 30
20 21 20 21 22 22 22 22 23 23 23 23 23 23 22 20 20 21 21 22 24 25 26 26 27 29 29
19 21 21 21 20 20 21 21 21 20 21 22 23 23 22 23 23 22 23 23 24 26 26 27 28 29 30
20 21 20 19 19 20 20 21 20 19 19 20 22 23 24 23 22 22 23 24 25 26 27 27 27 28 29
20 20 20 19 19 20 21 20 19 19 20 20 21 22 22 23 25 25 26 26 26 26 26 26 26 27 28
20 19 19 19 19 18 19 19 19 19 19 21 23 23 20 19 21 24 27 27 26 26 27 27 27 28 28

GFSFLT2_sfc_30mbdewp_033.txt.gz
Dewpoint
19 21 22 21 22 22 22 21 23 25 25 25 24 25 25 26 26 27 27 30 30 32 32 34 34 34 35
21 22 22 22 22 22 23 24 25 26 23 23 22 23 24 25 27 28 27 27 29 30 31 31 31 31 34
21 23 22 24 24 25 26 27 22 21 20 20 22 24 26 26 26 25 26 26 26 27 27 28 29 30 31
22 23 24 23 24 26 20 21 20 19 20 21 23 25 25 24 24 24 25 25 26 27 28 29 30 31 31
23 23 22 23 21 21 20 20 20 20 20 22 23 23 22 22 22 23 25 26 26 27 28 29 30 32 32
24 22 22 21 20 20 20 20 20 22 23 23 22 21 21 22 23 24 24 25 26 27 28 28 29 30 32
23 23 22 21 20 21 23 24 24 25 22 21 21 21 21 21 22 23 24 25 26 26 26 28 29 30 31
24 22 21 21 25 27 24 22 21 21 21 19 20 20 21 21 22 22 24 25 25 25 25 26 26 27 28
21 22 24 24 22 21 21 20 18 18 19 20 20 20 21 20 20 22 22 22 22 24 25 26 26 27 28
22 22 20 19 20 20 20 20 19 19 18 20 20 20 17 18 18 20 20 21 22 23 24 25 26 26 26
17 17 18 19 20 21 21 22 21 19 20 21 21 20 20 19 19 20 20 20 21 22 23 24 26 27 27
17 18 19 21 21 22 22 23 23 22 22 23 21 21 19 18 17 18 19 21 22 23 24 25 26 27 28
19 19 20 21 22 22 22 21 21 21 22 22 22 22 21 19 18 19 20 21 22 23 25 25 25 26 26
19 20 20 21 20 20 20 19 19 18 20 21 22 22 21 21 21 20 21 21 22 23 25 26 26 27 27
19 19 19 19 19 19 19 19 19 18 18 19 21 22 22 22 21 21 21 22 23 24 25 26 26 26 27
19 19 18 18 18 19 20 19 17 17 18 19 20 20 20 21 24 23 24 24 25 26 27 26 25 26 26
18 18 18 18 19 17 17 18 18 18 18 19 22 22 19 17 20 24 26 26 26 25 25 26 26 27 27

GFSFLT2_sfc_30mbdewp_036.txt.gz
Dewpoint
19 21 22 22 22 23 23 23 23 26 25 26 26 26 26 26 26 27 27 28 30 33 32 32 34 34 35
20 21 22 23 23 23 24 24 25 26 26 25 25 24 25 26 27 27 28 29 28 28 28 29 30 29 32
21 22 23 23 24 24 24 25 26 24 23 22 23 24 26 27 27 27 26 26 27 27 27 28 27 31 31
22 22 23 24 24 24 22 21 21 21 21 22 24 25 25 25 26 25 25 26 26 27 27 28 29 30 30
21 22 23 22 21 21 21 20 20 21 21 22 23 24 24 24 23 23 24 26 27 27 28 29 30 30 31
22 23 22 22 22 21 21 20 20 22 23 23 22 21 22 22 23 24 25 25 26 26 27 28 29 30 30
22 22 23 23 23 21 21 23 23 23 22 20 20 20 21 21 22 23 24 25 26 26 26 26 28 28 30
23 24 24 24 26 28 25 22 22 21 20 18 19 19 20 21 22 23 24 25 25 26 25 25 26 27 27
22 22 24 24 22 21 21 21 18 18 19 19 19 19 19 19 20 22 22 23 23 23 24 25 26 26 27
21 19 18 18 20 20 20 19 19 17 18 18 19 20 17 18 19 20 19 21 22 23 24 25 25 25 26
16 16 18 19 20 21 22 22 20 19 19 21 21 20 19 18 19 19 20 20 20 21 22 23 25 26 26
17 18 19 20 20 21 22 22 23 22 22 22 20 19 18 17 16 17 19 20 21 21 22 23 25 26 27
18 19 19 20 21 21 21 21 21 21 22 22 21 21 20 18 17 18 19 19 21 21 22 23 24 25 25
18 19 19 19 19 19 19 19 19 18 19 20 21 21 19 20 20 19 19 20 21 22 23 23 24 25 27
18 18 18 18 18 18 18 18 17 17 17 18 19 20 21 21 19 19 20 20 21 22 23 24 25 26 26
18 17 17 17 17 18 19 18 17 16 17 18 18 19 19 20 23 21 21 22 23 25 27 25 25 26 26
17 17 17 17 18 16 17 17 17 17 17 18 19 20 18 16 19 23 25 27 26 25 25 24 24 25 26

GFSFLT2_sfc_30mbdewp_042.txt.gz
Dewpoint
19 19 19 20 21 22 24 24 24 25 25 26 27 28 29 29 28 28 28 28 30 32 32 33 34 36 36
19 19 20 21 22 22 23 23 24 24 25 27 27 27 27 28 28 28 28 30 30 31 32 33 33 34 33
19 21 22 23 23 23 23 24 24 25 24 24 25 26 27 28 28 27 27 28 28 28 28 28 28 29 29
21 22 22 22 23 23 23 22 22 22 23 24 25 25 25 25 26 26 27 28 28 28 28 28 28 28 29
21 21 21 22 23 23 22 22 22 23 22 22 22 23 23 24 24 24 25 26 27 28 28 29 30 30 31
21 21 22 24 22 22 22 22 21 22 22 21 23 21 21 22 23 24 25 26 27 27 27 28 29 30 30
24 23 22 23 23 22 23 23 23 23 23 20 21 20 21 20 22 23 24 26 27 27 27 27 27 27 28
24 24 24 24 24 25 25 23 21 21 21 19 19 18 19 20 21 23 24 25 26 27 27 26 26 27 28
22 24 24 22 21 21 20 20 18 17 19 18 18 18 19 19 19 22 23 23 23 24 25 25 26 27 26
19 17 17 17 21 20 20 19 18 17 18 18 18 19 17 18 19 19 19 20 21 23 24 25 26 26 26
15 16 18 19 20 20 21 20 19 18 18 20 20 19 19 17 18 18 19 18 19 19 21 22 24 25 25
17 18 18 19 19 20 20 21 21 21 21 21 19 18 17 16 15 16 17 19 20 20 21 22 23 25 26
18 18 19 19 19 19 19 19 19 20 21 21 20 19 19 16 16 16 18 18 19 19 20 21 21 22 22
17 18 19 18 18 18 18 17 17 16 18 19 20 20 17 18 18 16 17 17 19 20 21 21 22 23 24
17 17 17 17 17 17 17 17 16 16 16 17 19 20 20 19 17 17 18 18 19 20 21 21 22 23 23
16 15 15 15 15 17 18 17 16 16 16 17 18 18 18 19 22 20 20 20 21 22 24 24 24 25 25
14 14 15 15 17 17 16 17 17 17 17 18 20 20 17 15 18 21 23 25 25 24 24 24 24 24 25

GFSFLT2_sfc_30mbdewp_045.txt.gz
Dewpoint
26 27 27 25 23 23 23 23 24 26 26 26 27 28 28 28 29 29 29 29 29 30 31 33 35 35 36
28 25 24 24 23 23 23 23 23 24 25 26 26 27 27 28 28 29 29 29 31 31 32 33 34 34 34
25 25 24 23 23 23 23 24 24 24 24 24 25 27 28 28 28 28 28 28 28 28 28 28 29 30 31
26 24 23 23 23 23 22 22 21 21 23 24 26 26 25 25 26 26 27 27 28 29 29 28 29 30 30
24 23 23 22 22 22 22 20 22 23 22 22 22 22 22 24 24 24 25 27 28 28 28 29 30 30 31
24 23 22 23 22 21 21 21 20 21 21 21 22 21 21 21 22 24 26 26 27 27 27 28 29 30 30
24 23 22 22 24 24 23 23 22 22 21 20 20 19 20 20 22 23 24 25 26 27 27 27 27 28 29
24 23 22 23 25 26 24 22 20 20 20 19 19 18 19 19 21 22 24 25 26 26 26 26 27 28 29
22 24 24 23 21 21 21 20 19 17 18 18 18 18 19 19 19 21 22 23 23 23 24 25 26 26 27
20 18 17 17 21 20 20 20 19 18 19 18 19 19 17 17 19 19 19 20 21 23 24 24 25 26 26
15 15 18 18 19 20 20 21 19 19 19 21 20 19 19 18 18 19 19 20 20 20 21 22 23 25 26
17 18 19 20 20 21 21 21 21 22 22 22 19 19 18 17 17 18 19 21 22 22 23 23 24 25 25
18 19 19 20 21 20 21 21 21 21 22 22 22 21 20 18 18 18 19 20 22 22 23 23 23 23 23
18 18 19 19 19 20 19 19 19 19 21 22 21 21 19 19 19 18 19 19 21 22 23 23 23 24 24
17 17 17 18 18 19 19 19 18 19 19 21 21 21 21 21 19 20 20 20 22 22 23 22 23 24 25
17 16 17 17 18 19 20 20 19 19 19 20 21 21 20 21 22 21 22 22 24 25 25 24 24 25 26
16 16 16 17 18 18 19 20 19 20 21 21 21 22 19 17 19 21 24 26 26 24 25 25 24 25 26

GFSFLT2_sfc_30mbdewp_048.txt.gz
Dewpoint
30 31 32 32 32 31 30 27 24 24 25 27 27 28 29 29 29 29 30 30 30 30 31 31 35 36 37
31 30 30 32 30 29 27 24 23 22 25 27 28 27 28 28 29 29 29 29 29 30 33 33 34 34 35
30 31 29 28 28 26 24 22 23 23 23 22 23 25 27 28 29 29 28 29 29 29 29 29 29 30 31
28 28 28 27 26 23 21 21 20 19 20 22 24 25 26 27 27 27 28 28 28 29 29 29 29 29 30
27 25 24 22 20 20 20 19 20 20 19 21 21 21 22 23 23 24 25 25 27 28 29 29 29 30 31
26 22 20 20 20 20 20 19 19 21 20 21 21 20 20 21 21 23 25 26 27 27 28 28 28 28 30
22 20 20 20 23 23 22 21 21 21 20 20 20 20 20 19 21 22 24 25 26 27 28 28 28 28 28
23 22 21 21 21 24 25 22 21 20 20 20 19 19 19 20 21 22 23 24 25 26 27 27 26 27 28
22 22 24 24 23 21 21 21 21 20 20 20 20 20 21 22 22 22 23 23 24 25 25 26 26 27 27
19 17 17 16 20 21 21 22 21 20 20 20 21 21 20 19 21 21 22 22 23 23 24 25 26 26 26
15 14 17 19 20 20 21 22 21 21 21 24 22 22 22 20 20 22 23 23 22 23 23 24 24 25 26
16 18 20 22 24 24 24 23 24 24 25 25 22 21 21 20 19 21 23 24 25 25 26 26 26 26 26
19 21 22 23 24 24 25 25 24 25 25 25 24 22 22 20 20 20 21 22 24 25 26 26 26 26 25
20 20 21 22 22 23 23 23 23 23 26 26 26 24 21 21 21 20 21 21 23 24 25 26 26 26 26
20 20 20 21 22 23 23 22 22 22 23 25 26 26 26 24 21 21 21 22 24 25 25 25 25 26 26
20 20 20 20 21 22 22 22 22 21 22 22 23 23 23 23 24 23 24 24 25 26 27 27 26 27 27
20 19 19 19 20 20 21 22 21 21 22 23 24 24 21 19 21 23 23 24 25 26 26 26 26 27 27

GFSFLT2_sfc_30mbdewp_051.txt.gz
Dewpoint
31 32 31 33 34 34 34 32 30 28 27 27 28 29 30 30 30 30 31 31 31 31 32 32 32 33 33
32 32 32 32 32 32 32 29 26 24 25 26 28 29 29 28 29 30 30 30 30 30 30 30 30 31 33
31 31 32 32 31 29 28 26 24 23 24 24 23 23 26 28 29 30 30 30 30 30 30 30 30 30 30
31 32 32 31 29 26 23 24 22 21 21 22 23 24 26 26 26 27 27 28 29 29 29 29 29 29 29
29 28 26 25 24 22 21 21 22 22 22 22 22 23 23 24 24 23 24 25 27 28 28 29 29 29 29
27 25 22 21 21 21 25 22 20 22 22 22 24 22 22 23 23 23 25 25 26 27 28 28 29 28 29
25 22 20 21 25 23 23 23 23 22 23 21 22 22 22 21 22 23 25 26 26 27 27 28 27 27 28
23 23 23 22 22 23 25 25 24 23 23 21 22 22 22 23 23 24 25 26 27 27 27 28 28 28 27
23 22 23 24 24 24 22 22 22 22 23 22 22 23 23 23 24 24 24 24 25 26 26 27 27 27 27
20 20 19 19 19 21 22 22 22 21 23 21 23 23 23 22 23 24 23 24 25 25 25 26 26 25 25
18 15 16 18 20 21 22 23 22 22 23 24 24 24 22 22 23 24 24 24 25 25 25 25 26 26 26
16 18 21 23 24 24 25 25 25 24 25 26 24 22 21 20 19 21 22 23 24 25 26 27 27 27 27
20 22 23 24 24 24 25 25 25 26 26 25 25 24 23 21 20 20 21 21 22 23 26 26 26 27 26
21 22 23 23 22 23 23 23 24 23 25 27 27 27 23 23 22 21 21 21 22 23 24 25 26 27 26
21 21 21 21 21 22 23 23 22 22 22 24 25 26 27 26 23 22 22 23 24 24 25 25 26 27 27
21 20 21 20 20 20 21 22 21 21 22 22 24 24 24 24 26 24 24 25 25 26 26 26 25 26 27
21 20 20 20 20 19 19 21 21 22 23 22 23 24 21 20 21 24 23 23 23 24 24 25 25 26 27

GFSFLT2_sfc_30mbdewp_054.txt.gz
Dewpoint
33 33 33 33 35 35 35 35 35 36 36 34 31 30 30 31 32 32 32 32 32 32 32 33 33 33 33
32 31 32 33 33 33 34 34 33 30 28 27 28 29 30 30 28 29 30 31 31 31 31 32 32 31 32
31 32 32 32 32 33 32 31 28 26 26 25 24 24 25 27 29 30 31 31 31 31 31 31 31 31 31
32 31 32 32 30 28 27 26 25 23 23 23 23 25 25 26 26 27 27 28 28 29 30 30 30 30 30
30 30 30 28 27 26 25 23 23 23 22 23 23 23 24 26 26 24 24 26 27 28 29 28 29 30 30
28 27 24 22 22 24 24 22 20 24 23 22 23 24 24 24 25 25 26 26 27 28 28 28 28 28 28
26 24 22 23 23 22 22 21 22 24 23 23 23 22 24 23 24 25 26 27 28 28 29 29 29 28 28
25 24 24 24 24 24 23 24 24 24 24 22 22 22 23 24 26 25 26 28 28 27 28 28 28 28 28
24 23 22 24 24 24 22 21 21 22 23 22 22 22 22 23 24 26 25 25 25 26 27 28 28 27 27
19 21 20 20 19 22 21 19 20 20 23 21 22 22 21 23 23 23 24 25 25 25 26 26 27 26 26
19 16 17 19 20 20 21 20 20 20 23 24 24 23 22 21 22 22 22 23 23 24 24 25 26 27 27
15 18 19 22 23 25 25 25 26 25 25 26 24 23 22 20 20 20 21 22 23 23 23 24 26 27 26
18 21 23 23 23 23 24 25 26 26 26 26 25 25 24 21 21 21 21 22 23 23 23 24 24 25 25
19 20 22 22 22 23 23 24 23 23 25 25 25 26 24 24 24 22 22 22 23 24 24 24 24 25 25
20 20 21 21 21 22 22 22 21 20 21 24 26 26 26 25 23 23 23 23 24 24 24 24 25 26 26
21 20 20 20 20 21 22 21 20 20 20 22 24 24 24 24 26 24 24 24 25 25 25 25 24 25 26
20 21 22 21 20 20 20 20 19 20 21 23 24 23 20 19 21 24 23 24 24 24 24 24 24 24 26

GFSFLT2_sfc_30mbdewp_057.txt.gz
Dewpoint
34 34 35 36 38 36 37 36 36 36 36 37 39 40 35 32 32 33 33 33 33 33 33 33 34 33 34
32 32 32 34 34 34 33 33 34 35 38 39 33 30 30 31 31 29 30 31 32 32 32 32 32 32 32
31 32 32 33 32 33 34 34 33 31 30 29 28 27 26 27 28 29 30 31 31 31 31 30 31 31 31
32 32 32 33 32 31 29 29 28 26 24 25 25 25 26 26 27 27 28 28 28 29 29 30 30 30 30
30 31 31 29 29 28 27 24 23 24 22 23 23 23 23 25 26 25 26 27 28 29 29 29 29 29 30
29 27 26 24 23 24 24 22 20 24 23 22 23 23 24 24 26 27 27 27 28 29 29 29 30 29 29
26 24 22 23 23 22 22 21 20 23 24 22 24 23 24 24 25 27 27 28 29 30 30 30 29 29 29
24 24 24 24 23 23 22 23 23 23 24 21 23 22 23 23 25 26 27 28 28 27 28 28 28 28 28
24 23 22 22 25 24 22 22 20 22 23 22 22 22 22 22 24 26 26 26 26 26 28 28 28 28 28
20 21 20 18 20 21 22 19 18 19 22 22 22 22 19 22 22 22 23 25 24 24 25 26 26 27 27
19 16 17 20 22 22 22 19 18 19 22 23 22 23 23 22 22 22 22 22 22 23 24 24 25 26 27
16 17 19 22 23 24 25 25 25 25 25 26 24 22 21 20 20 21 22 23 23 23 23 24 25 25 26
19 20 21 21 21 22 23 24 24 24 26 26 26 25 24 21 21 21 22 22 23 24 23 22 23 24 23
19 20 21 21 22 22 23 24 24 23 25 27 27 26 23 24 24 22 23 22 23 24 24 25 25 25 25
20 20 20 21 21 23 22 22 21 20 20 22 24 26 27 26 23 23 22 23 23 24 24 24 25 25 26
21 21 20 20 20 22 22 21 20 19 19 20 22 22 23 25 26 24 23 24 24 24 24 24 24 25 25
20 21 21 21 20 20 20 20 19 19 19 20 20 21 18 16 18 22 23 23 23 23 24 24 24 24 25

GFSFLT2_sfc_30mbdewp_063.txt.gz
Dewpoint
35 35 36 38 38 40 41 40 42 44 45 44 43 42 42 42 41 43 42 40 39 38 37 37 36 35 35
33 33 34 36 36 37 38 38 37 37 39 40 40 40 40 41 41 38 36 36 35 33 33 33 34 34 34
33 33 33 33 33 34 35 35 36 37 37 38 39 39 39 37 35 33 32 31 31 32 32 32 33 33 33
32 32 33 33 33 32 32 34 33 35 33 30 29 29 29 30 29 29 30 31 31 31 31 31 31 32 32
31 32 31 31 31 31 30 26 24 24 23 22 22 22 22 25 26 27 27 28 28 29 30 31 30 31 31
28 26 24 24 24 24 24 21 19 23 22 21 23 22 22 23 26 27 28 28 30 31 31 31 31 31 31
25 23 22 23 21 22 22 21 20 21 23 20 22 20 22 24 27 28 28 29 30 30 31 31 31 30 31
23 23 23 23 23 22 21 22 23 23 24 20 22 22 22 23 26 27 28 29 30 30 30 30 30 30 30
25 25 25 25 26 24 23 22 21 20 23 22 21 22 22 22 23 27 28 27 27 28 28 29 29 29 29
20 20 18 18 22 24 22 19 19 17 21 22 21 21 18 20 22 22 22 24 26 26 27 27 27 27 27
17 16 18 20 24 22 22 18 17 17 21 23 21 21 21 20 21 22 22 22 22 23 24 25 26 27 26
17 19 20 21 21 22 24 23 23 23 24 26 23 23 21 20 20 20 20 21 22 22 23 24 26 27 27
18 18 20 20 20 20 21 23 23 25 26 27 26 24 24 21 21 21 21 21 22 22 22 22 23 23 23
18 19 20 20 20 22 22 21 21 20 20 20 24 26 23 23 23 21 21 21 20 21 22 22 24 24 24
20 20 21 20 20 21 21 21 20 18 18 18 20 21 22 22 20 20 20 21 22 22 23 22 23 24 25
20 21 21 20 20 21 22 21 19 18 17 17 17 17 18 19 22 21 21 22 22 23 23 23 22 23 24
19 21 20 20 18 19 18 17 17 17 17 17 16 15 15 13 16 19 21 21 21 22 22 23 22 22 22

GFSFLT2_sfc_30mbdewp_066.txt.gz
Dewpoint
36 35 36 37 38 40 40 40 41 44 45 46 47 46 45 44 44 44 43 43 42 42 42 41 41 41 39
34 33 33 35 36 37 37 37 37 39 41 41 41 42 42 42 42 42 41 40 39 39 38 37 36 35 35
33 33 33 34 34 34 35 35 35 37 38 39 40 40 40 40 39 39 37 35 34 34 33 34 34 34 34
33 33 33 33 34 32 32 34 34 34 34 35 32 31 32 32 32 31 31 31 32 33 33 33 32 32 33
31 31 30 30 30 29 29 26 24 24 23 23 23 22 22 25 26 27 28 29 29 30 30 31 31 31 31
25 24 23 22 23 24 23 21 19 23 22 21 22 21 22 22 24 26 26 26 27 29 30 31 31 30 30
23 23 22 23 21 21 21 20 20 21 23 20 22 20 22 23 26 28 29 29 30 31 31 31 31 30 30
24 23 23 23 24 22 22 22 22 23 23 19 22 21 22 23 26 27 28 29 30 31 31 31 30 30 30
25 25 26 24 25 24 22 21 19 19 23 22 21 22 22 22 23 27 29 29 28 29 29 29 29 29 30
20 18 18 20 24 25 22 19 18 17 20 21 21 20 18 20 21 22 22 24 25 26 27 27 27 28 27
16 17 20 22 24 22 21 18 17 17 20 24 22 21 20 19 21 21 21 22 22 22 24 25 26 27 27
18 19 20 20 21 21 22 22 22 23 24 24 23 22 21 20 20 20 20 21 21 22 22 24 26 25 28
18 18 19 20 19 20 21 22 22 23 25 25 25 25 24 21 20 20 21 20 21 21 22 22 22 22 22
18 19 19 20 20 22 21 21 21 19 20 19 19 22 22 22 22 20 21 20 20 20 21 22 23 24 24
19 19 20 21 21 22 21 21 20 19 17 17 18 19 19 20 19 19 19 19 20 21 22 23 24 23 24
20 20 19 20 19 20 21 21 19 17 17 16 15 16 16 18 21 19 19 20 21 22 22 22 22 23 24
17 18 18 19 18 18 17 18 17 15 15 15 15 14 13 13 15 19 20 20 21 21 21 22 21 21 22

GFSFLT2_sfc_30mbdewp_069.txt.gz
Dewpoint
36 36 37 38 39 39 39 39 40 44 45 47 46 46 46 46 46 46 45 45 45 45 45 44 43 43 43
35 35 35 36 37 37 36 36 37 40 42 42 42 43 43 43 43 43 44 43 43 42 42 41 41 40 39
35 35 35 35 35 35 35 36 36 37 38 37 38 39 40 40 41 40 40 40 39 37 36 36 36 36 36
34 34 34 34 34 33 33 32 30 27 28 30 31 32 32 33 33 33 33 33 33 34 34 34 34 34 33
31 31 29 28 28 27 27 25 25 24 23 23 23 23 24 25 25 25 27 29 30 32 32 31 31 32 32
26 23 23 23 23 23 24 22 21 23 22 21 22 20 20 19 22 25 25 26 26 27 29 30 31 31 31
21 22 22 23 23 24 23 22 21 22 23 19 21 18 21 22 26 27 28 29 29 30 31 31 31 31 31
25 25 25 25 25 26 25 24 22 23 23 19 21 20 22 23 25 28 28 29 30 31 31 30 30 31 31
25 24 25 24 25 25 24 22 18 19 22 22 22 22 22 22 22 28 29 30 29 30 31 30 30 30 30
18 16 18 21 24 25 24 21 20 20 22 23 22 21 22 21 23 22 23 24 26 27 27 28 29 28 27
15 18 21 23 24 24 22 23 22 22 22 25 23 22 21 21 21 23 22 22 22 22 23 25 25 26 27
18 19 20 22 23 23 23 24 23 24 24 26 23 23 21 20 20 21 22 22 23 24 24 25 25 25 26
19 20 21 22 22 23 22 22 23 23 23 24 24 23 22 20 20 21 21 22 24 24 25 24 24 23 23
20 20 22 22 20 21 21 20 20 21 23 22 21 21 20 21 21 21 21 21 22 23 23 23 23 24 24
20 21 20 19 19 20 20 20 20 19 20 20 20 20 21 21 19 20 20 20 22 22 22 22 23 24 24
19 20 19 19 19 19 20 20 18 18 18 18 17 17 18 18 21 20 20 20 21 22 23 22 22 23 23
16 17 19 19 19 19 18 18 17 16 17 17 17 16 15 14 16 21 22 21 21 21 21 22 22 23 22

GFSFLT2_sfc_30mbdewp_072.txt.gz
Dewpoint
39 38 39 40 40 40 40 39 40 43 44 45 46 46 46 46 46 47 46 47 46 45 45 46 46 46 46
38 38 38 38 38 38 38 37 37 40 41 42 43 43 43 44 44 44 45 44 44 44 44 44 44 44 43
37 37 36 36 36 36 36 36 35 33 36 36 37 38 40 40 41 41 41 41 41 41 40 38 38 39 39
36 35 35 34 34 33 33 31 29 27 27 29 30 30 32 33 33 33 34 34 35 36 36 36 35 36 36
33 32 29 27 26 26 26 25 25 24 23 23 23 24 24 25 24 25 26 29 32 34 34 35 34 33 32
25 20 21 21 22 22 23 21 21 24 21 18 20 18 18 19 20 24 26 26 26 27 28 29 30 31 32
19 19 19 21 26 26 23 22 21 20 20 16 16 14 18 19 24 27 27 28 29 28 29 29 31 31 31
25 25 25 26 25 26 25 22 20 20 21 19 19 20 22 22 24 27 28 29 30 31 31 31 30 31 32
25 24 24 24 25 23 23 21 19 17 21 22 23 22 23 22 22 28 30 30 30 30 31 30 30 31 31
15 14 17 20 23 22 22 23 22 22 23 23 23 23 24 23 25 24 23 25 27 28 29 29 30 30 28
12 15 18 20 22 23 23 26 24 23 24 24 22 22 22 22 23 24 25 24 23 23 24 26 27 27 27
15 16 19 21 24 24 24 25 25 25 24 27 23 23 22 21 21 23 24 25 25 26 26 26 27 27 27
17 21 22 24 25 25 24 24 25 24 25 25 24 23 23 22 21 21 22 24 26 25 26 26 26 26 26
19 20 22 23 22 22 22 21 21 21 24 25 24 23 22 21 22 21 22 22 25 25 26 26 25 25 25
19 20 20 20 20 21 20 20 20 20 21 23 22 22 22 22 21 21 21 22 25 26 24 24 25 25 25
18 19 19 19 19 20 20 19 19 19 19 20 20 19 18 20 23 22 21 22 24 25 24 22 23 24 24
18 18 18 19 18 18 18 18 18 18 19 19 19 18 17 17 19 23 22 22 23 22 23 23 23 24 24

GFSFLT2_sfc_30mbdewp_078.txt.gz
Dewpoint
40 39 40 39 39 39 39 38 39 40 42 43 44 45 45 45 47 48 50 51 52 52 52 52 51 50 49
39 38 37 37 38 37 37 37 35 34 37 39 41 42 43 43 44 45 45 45 46 47 48 48 48 48 48
38 37 37 36 35 35 36 35 31 29 29 31 34 37 39 39 40 40 40 42 43 44 44 44 44 44 44
36 35 35 34 34 27 26 27 28 25 26 28 29 30 30 31 31 32 34 36 38 40 39 38 38 38 38
31 30 26 23 22 24 23 23 25 24 22 21 23 21 24 28 28 28 29 30 31 34 36 37 36 36 36
23 19 20 21 25 24 24 23 22 24 19 17 20 17 19 20 25 28 28 28 27 28 30 32 33 34 34
21 21 23 25 25 26 25 25 22 22 20 18 22 21 24 24 27 27 28 30 29 29 29 28 28 29 30
26 26 26 27 25 26 24 23 24 23 22 19 24 24 24 25 27 27 31 30 31 31 31 31 31 31 31
23 21 21 21 23 25 24 23 22 21 24 23 24 23 25 26 25 27 27 28 28 30 31 32 32 31 32
18 22 19 21 22 22 23 22 23 23 24 21 22 22 20 25 25 25 26 27 28 27 27 29 31 30 29
14 14 18 21 24 24 25 23 22 22 26 23 21 21 21 21 22 23 25 26 26 27 28 28 28 28 28
14 17 20 23 24 25 25 25 25 25 24 24 22 22 22 21 20 22 22 23 24 25 26 27 27 28 29
16 19 22 24 24 23 25 23 23 24 24 23 23 22 22 22 21 21 21 22 23 23 25 25 25 26 25
18 21 24 24 23 23 22 20 20 21 22 25 23 22 22 21 21 21 21 21 21 22 23 24 26 25 25
18 19 21 22 22 22 21 21 20 19 19 20 25 24 24 22 21 20 20 20 21 22 24 25 26 24 25
17 19 20 20 20 21 20 20 19 19 19 20 20 22 20 19 23 21 20 20 21 22 26 24 23 24 24
17 18 19 19 20 19 19 19 19 19 19 19 19 20 17 16 18 20 21 20 22 23 23 22 22 22 24

GFSFLT2_sfc_30mbdewp_081.txt.gz
Dewpoint
40 39 38 38 38 39 39 38 38 39 41 43 43 45 44 44 45 47 48 51 52 53 56 55 53 52 51
39 38 37 37 38 37 37 37 31 33 34 36 40 41 42 42 42 43 44 45 47 48 49 50 50 50 49
37 37 37 35 34 34 35 32 29 28 29 31 31 34 36 38 38 38 39 41 42 43 44 45 45 45 45
36 35 34 34 32 25 24 25 25 24 25 27 28 29 29 30 31 32 33 35 38 40 39 39 38 39 39
31 31 25 23 22 24 22 23 23 22 20 19 22 20 26 27 27 28 29 30 32 33 36 37 37 37 37
22 20 20 22 23 24 24 22 20 24 19 19 20 21 22 23 28 28 29 30 28 29 30 31 33 35 36
21 21 23 24 25 25 23 23 21 22 20 16 24 22 24 25 28 29 30 29 31 30 30 30 29 29 30
26 26 26 26 25 25 24 24 24 23 23 18 24 24 25 25 27 28 29 31 31 32 31 31 31 31 31
23 21 20 21 24 23 23 22 21 22 24 23 23 22 23 26 26 28 29 28 27 28 30 32 33 30 32
17 22 20 22 24 22 23 20 22 23 24 21 22 21 18 22 23 23 25 28 29 29 29 30 29 30 29
14 14 18 22 24 25 25 22 21 21 27 22 20 20 20 20 21 22 22 22 23 25 27 27 28 29 28
14 16 18 22 24 25 25 24 24 23 24 23 22 20 20 19 19 21 21 22 23 22 23 25 26 26 28
15 17 21 23 24 23 24 24 23 23 23 23 23 22 22 21 20 20 21 21 22 22 23 24 24 25 24
17 21 24 24 23 21 22 21 19 19 21 21 25 22 20 21 22 20 20 19 20 21 22 23 24 25 26
18 19 21 22 22 21 21 20 20 19 19 20 21 22 20 21 20 21 20 20 20 20 21 21 23 26 25
17 18 19 19 19 20 19 20 19 19 19 18 19 21 20 20 24 21 20 20 19 20 21 22 23 23 24
15 15 17 18 20 19 19 19 19 18 18 18 18 18 18 16 17 22 21 19 20 21 22 22 21 21 22

GFSFLT2_sfc_30mbdewp_087.txt.gz
Dewpoint
40 40 38 38 39 39 38 34 34 38 39 40 42 42 43 42 42 43 46 47 50 52 57 57 56 56 56
39 38 38 38 37 36 36 30 29 34 34 35 36 37 39 39 39 40 42 44 44 47 49 52 55 54 53
38 38 37 35 33 32 28 28 24 26 30 32 33 33 34 32 32 34 37 40 42 42 44 46 48 50 51
37 36 35 32 27 29 25 24 22 22 22 27 27 32 30 30 30 31 32 35 37 40 40 40 41 43 44
35 33 30 27 25 23 22 22 23 22 19 21 20 23 26 28 31 32 31 32 33 35 36 38 39 39 39
29 31 26 23 23 22 22 20 17 24 20 20 23 23 24 28 30 32 30 31 31 31 32 33 33 34 35
26 24 23 23 24 24 22 21 19 23 21 16 24 23 24 26 30 30 31 32 32 32 32 32 31 31 31
24 24 25 25 26 24 23 23 23 23 23 17 23 22 24 26 31 31 30 29 30 31 32 34 34 33 33
27 28 29 28 26 25 23 22 20 21 24 23 22 21 22 25 24 29 30 31 30 30 31 32 32 32 31
22 22 23 24 27 22 23 20 21 21 24 21 20 21 18 22 23 23 22 25 25 28 29 30 29 29 28
14 16 20 23 24 24 23 21 20 21 26 21 19 19 18 19 20 22 22 21 23 22 25 27 28 28 27
14 15 17 21 24 24 25 24 23 22 25 21 20 19 19 18 18 20 20 21 22 20 22 23 22 24 26
15 16 19 21 24 25 25 24 23 23 25 23 21 21 21 19 18 19 20 19 19 20 21 20 20 21 21
15 18 22 23 23 24 22 22 21 21 21 21 21 21 20 20 19 19 19 19 18 19 20 20 20 21 22
16 18 21 23 24 24 22 20 21 19 19 20 21 21 21 21 19 19 20 19 19 20 20 19 19 21 22
18 19 20 22 23 21 20 20 20 19 19 19 19 19 19 20 23 20 20 20 19 19 19 19 19 20 21
17 18 19 20 21 20 19 19 19 18 18 17 17 18 16 13 17 24 21 18 19 19 19 19 19 20 20

GFSFLT2_sfc_30mbdewp_090.txt.gz
Dewpoint
40 40 40 40 40 39 36 33 33 37 38 40 41 41 41 41 41 42 44 46 48 50 56 56 55 57 57
39 38 38 39 38 37 32 27 29 34 35 36 35 37 36 35 36 39 41 44 45 47 50 55 56 56 56
38 38 38 36 34 31 29 27 23 27 28 32 35 35 32 32 33 34 37 40 42 43 45 47 50 53 53
38 37 36 33 29 30 26 24 23 21 22 27 28 29 31 32 32 32 33 36 39 41 42 42 44 45 47
36 34 32 29 29 25 26 22 23 22 19 22 22 24 28 31 32 31 32 33 35 37 38 39 40 40 41
33 33 30 26 24 22 21 19 15 24 19 20 24 23 24 29 32 33 33 32 32 33 34 34 35 36 37
31 29 27 24 24 23 22 20 19 23 21 16 24 23 24 27 31 31 31 33 33 33 33 33 32 32 32
23 23 24 25 25 24 22 22 23 24 23 17 23 21 24 26 30 30 31 32 32 32 32 33 35 35 35
29 29 29 28 27 25 23 22 20 21 24 22 22 20 22 25 24 31 30 29 30 30 30 31 32 32 31
24 23 25 26 27 22 24 19 20 20 24 21 20 20 18 22 23 24 22 26 26 28 28 29 30 28 28
17 17 22 24 24 24 23 20 20 21 26 21 19 19 18 18 20 22 22 21 22 21 27 27 25 28 27
14 14 18 21 24 25 24 23 23 22 26 22 20 19 18 17 17 20 20 21 22 20 21 23 22 24 25
16 16 18 21 24 25 24 24 23 24 26 23 22 21 20 19 18 19 20 19 20 20 21 20 20 21 20
17 19 22 22 23 24 23 22 21 22 23 23 22 22 20 20 20 19 19 19 19 19 20 20 21 21 21
17 17 19 22 23 24 22 20 20 18 19 21 22 21 21 20 19 19 20 19 19 19 20 19 19 20 21
19 17 18 20 22 22 20 20 20 19 19 19 19 20 19 20 23 20 19 19 20 19 19 19 19 19 21
17 17 19 19 22 21 20 19 19 19 19 17 18 18 15 11 16 24 20 19 18 20 20 19 18 19 20

GFSFLT2_sfc_30mbdewp_093.txt.gz
Dewpoint
41 41 42 41 40 39 35 34 37 39 39 40 40 41 40 39 40 41 43 45 48 50 55 55 55 56 58
40 39 39 40 39 37 30 27 31 36 37 37 36 36 35 35 36 38 41 43 45 47 50 55 57 58 57
40 39 38 37 35 33 30 27 23 27 30 32 36 34 33 33 33 34 38 41 43 45 46 48 51 56 56
39 38 37 34 33 32 29 26 25 21 23 27 30 31 33 33 33 33 34 38 40 42 43 44 45 48 50
37 35 34 31 30 28 29 25 24 23 20 23 23 25 29 32 33 32 33 34 37 38 39 41 42 43 44
35 35 32 29 27 26 25 22 19 24 20 21 24 23 26 32 32 32 33 32 33 34 35 36 37 38 39
34 32 31 28 27 26 26 23 20 23 21 17 23 23 24 29 31 31 32 33 34 34 34 33 33 34 35
25 27 26 27 26 27 25 23 24 24 23 21 22 21 24 28 31 31 31 32 32 32 33 34 35 35 34
29 29 28 28 26 25 23 23 21 21 24 23 22 21 23 25 24 31 30 29 30 30 31 31 33 32 34
24 26 27 28 27 23 26 22 22 21 24 24 22 22 23 24 24 24 23 26 28 28 29 29 31 29 29
20 19 24 24 23 24 24 24 22 22 26 24 22 22 21 21 22 23 23 22 22 22 28 27 26 28 28
15 16 19 22 25 25 25 25 25 25 28 25 23 23 22 20 19 22 23 23 24 23 23 25 23 24 25
18 19 21 24 27 27 26 25 24 27 27 24 25 23 23 21 20 21 22 22 23 24 23 23 22 22 23
20 20 23 24 24 26 25 25 24 24 26 25 24 24 23 22 22 20 21 20 22 22 23 23 22 22 22
20 19 20 22 23 25 25 23 22 21 22 23 24 24 24 23 21 21 20 21 22 22 22 21 22 23 22
22 20 19 21 23 24 24 24 22 21 22 22 23 22 22 21 23 21 21 21 22 22 22 21 21 22 20
22 21 21 21 22 23 23 23 22 22 22 21 21 21 18 14 17 24 21 21 21 21 22 21 21 21 20

GFSFLT2_sfc_30mbdewp_099.txt.gz
Dewpoint
45 44 44 43 41 38 37 38 41 41 40 40 40 39 38 37 37 38 40 43 45 48 49 52 57 56 56
44 42 42 42 40 36 31 31 38 40 38 38 38 36 35 34 34 34 38 41 43 46 48 49 56 56 57
42 42 41 40 38 36 31 28 27 33 31 36 37 35 34 34 33 33 36 39 41 44 46 47 51 57 57
41 41 39 37 37 35 33 29 26 23 28 29 30 29 31 33 34 34 34 37 39 41 44 45 47 50 55
40 39 37 34 35 35 34 31 28 28 26 24 24 25 28 32 32 34 34 36 37 38 41 42 44 45 48
39 37 37 35 33 32 33 31 32 28 25 24 25 25 29 32 33 33 34 35 36 37 38 38 39 42 43
36 37 36 34 33 32 32 32 28 26 25 21 24 23 28 32 33 33 33 34 34 35 36 38 37 37 38
30 34 35 34 34 34 32 27 24 23 24 23 22 22 26 31 33 33 33 33 32 33 33 35 37 37 35
30 30 30 30 29 28 26 23 22 22 25 24 22 22 23 27 28 32 31 31 32 31 31 33 32 33 36
31 31 30 29 27 27 27 28 25 23 25 26 24 24 25 26 27 28 27 26 27 27 31 30 31 30 31
21 25 27 26 23 22 27 31 28 28 27 29 27 25 26 26 26 27 26 25 24 24 29 28 27 29 30
19 19 23 24 25 27 27 27 29 31 27 29 28 28 27 25 24 24 26 26 25 26 26 27 26 24 24
20 22 24 29 30 29 29 28 30 30 29 27 29 27 27 25 25 24 24 26 27 27 27 25 25 25 24
23 26 29 29 28 29 28 28 28 27 28 27 28 26 26 25 24 24 24 24 26 26 26 26 26 25 24
25 25 26 26 27 29 28 28 27 26 27 27 27 27 27 26 24 25 24 24 25 26 26 24 25 26 26
26 26 24 25 26 28 28 27 26 26 26 26 25 24 25 25 26 24 23 23 25 26 25 23 24 27 26
27 27 27 26 25 27 27 26 26 26 26 27 26 24 22 19 25 27 24 25 25 24 25 25 23 25 25

GFSFLT2_sfc_30mbdewp_102.txt.gz
Dewpoint
45 44 44 42 41 39 37 39 41 41 41 41 40 39 37 36 35 35 38 41 43 45 48 49 53 57 57
44 42 42 42 40 36 32 33 39 40 39 39 38 36 36 34 34 34 35 40 42 44 47 48 52 57 56
42 42 41 40 38 36 31 30 29 35 33 35 37 35 33 33 35 35 35 39 40 43 46 47 50 56 56
42 41 40 38 38 36 34 31 28 23 29 30 29 27 30 32 34 35 35 38 39 41 44 45 47 52 55
40 40 38 35 36 36 35 33 31 29 27 24 25 26 29 34 34 34 36 36 38 40 40 43 45 47 50
38 37 37 36 35 34 34 31 31 28 25 24 24 25 29 32 33 33 33 34 36 37 39 39 41 44 46
36 36 36 36 34 33 33 33 29 25 24 22 24 24 29 33 34 33 33 33 34 34 36 39 38 40 43
33 35 36 36 34 34 33 27 24 23 24 20 22 23 28 31 33 33 33 33 33 33 34 34 37 37 40
30 32 33 36 33 32 28 25 22 22 24 23 22 22 23 27 30 32 31 32 30 32 33 33 33 36 38
30 30 30 29 29 29 27 23 22 21 24 24 23 23 21 26 27 28 27 26 26 29 30 30 32 31 32
28 28 28 23 21 25 29 29 25 26 26 28 25 23 27 25 26 26 26 26 24 25 29 28 27 29 30
21 24 26 23 24 26 27 28 31 27 27 28 25 25 24 23 23 24 25 26 25 26 26 27 27 25 25
20 20 23 25 27 27 27 28 28 28 27 27 25 26 25 24 23 23 24 25 26 25 26 25 25 25 22
21 23 28 27 26 26 23 24 23 25 27 26 26 24 22 24 23 23 22 20 25 25 26 25 25 25 24
23 25 26 27 27 27 26 26 25 25 24 25 27 26 26 24 23 23 23 24 24 24 25 23 24 25 25
25 26 25 25 26 28 27 26 24 26 25 25 24 23 23 24 25 22 24 23 24 25 25 22 21 24 26
25 25 24 25 25 27 26 26 25 25 25 25 23 21 18 12 25 27 20 24 24 25 25 24 22 24 26